Regional Weather Roundup
Issued by NWS Sterling, VA

Home | Current Version | Previous Version | Graphics & Text | Print | Product List | Glossary On
Versions: 1 2 3 4 5 6 7 8 9 10 11 12 13 14 15 16 17 18 19 20 21 22 23 24 25 26 27 28 29 30 31 32 33 34 35 36 37 38 39 40 41 42 43 44 45
000
ASUS41 KLWX 250710
RWRLWX

REGIONAL WEATHER ROUNDUP
NATIONAL WEATHER SERVICE BALTIMORE MD/WASHINGTON DC
200 AM EST THU DEC 25 2014

Note: "FAIR" indicates few or no clouds below 12,000 feet
with no significant weather and/or obstructions to visibility.
 TC=TEMPERATURE CELSIUS

 * =Non NWS site. Station does not report precipitation (e.g. rain,
    snow, etc.), thunder, or fog.

DCZ001-MDZ009-015-VAZ040>042-051-053>054-250800-
WASHINGTON METRO

CITY           SKY/WX    TMP DP  RH WIND       PRES   REMARKS
WASHINGTON NAT LGT RAIN  59  55  87 N8        29.62R
DULLES         LGT RAIN  53  50  89 NW8       29.63R
ANDREWS AFB    CLOUDY    61  61 100 SW12G21   29.60R
FT BELVOIR     CLOUDY    59  57  94 W7        29.63R
QUANTICO       CLOUDY    61  56  83 W13       29.63R
COLLEGE PARK*  CLOUDY    59  59 100 NW7       29.62R
LEESBURG*      CLOUDY    52  52 100 NW6       29.64R
MANASSAS*      CLOUDY    57  55  94 NW5       29.63R
GAITHERSBURG*  CLOUDY    52  48  87 W6        29.67R

$$

MDZ006>007-011-014-250800-
BALTIMORE METRO

CITY           SKY/WX    TMP DP  RH WIND       PRES   REMARKS
BWI AIRPORT    LGT RAIN  57  51  80 NW9G20    29.60R
MD SCIENCE CTR   N/A     55  52  89 MISG      29.60R
MARTIN STATE   LGT RAIN  59  59 100 W17G26    29.62R
ANNAPOLIS      LGT RAIN  62  59  90 W8        29.60R
FORT MEADE*    CLOUDY    55  54  94 W9G20     29.64R

$$

MDZ012-015-019>023-250800-
MARYLAND EASTERN SHORE

CITY           SKY/WX    TMP DP  RH WIND       PRES   REMARKS
OCEAN CITY     LGT RAIN  59  57  93 SW13      29.65R
SALISBURY      CLOUDY    66  60  81 SW13      29.63R
BAY BRIDGE AP* LGT RAIN  63  63 100 SW10G17   29.59R
CAMBRIDGE*     CLOUDY    63  61  94 S7        29.61R
EASTON*        CLOUDY    64  64 100 SW9       29.64R

$$

MDZ017>025-250800-
SOUTHERN MARYLAND

CITY           SKY/WX    TMP DP  RH WIND       PRES   REMARKS
PATUXENT RIVER CLOUDY    65  60  84 SW6       29.61S
ST INIGOES     CLOUDY    63  58  83 SW10      29.61R
LEONARDTOWN*   CLOUDY    63  59  88 SW7       29.62S

$$

MDZ003>005-250800-
NORTH CENTRAL MARYLAND

CITY           SKY/WX    TMP DP  RH WIND       PRES   REMARKS
FREDERICK*     LGT RAIN  54  45  71 W9        29.65R
HAGERSTOWN APT LGT RAIN  50  43  77 W10G21    29.65R
WESTMINSTER*   CLOUDY    54  48  82 W10G17    29.61R

$$

MDZ501>502-250800-
WESTERN MARYLAND

CITY           SKY/WX    TMP DP  RH WIND       PRES   REMARKS
OAKLAND*       CLOUDY    34 N/A N/A W9G17     29.66S WCI  26
CUMBERLAND*    CLOUDY    46  43  87 SW10      29.73R

$$

VAZ025>031-250800-
SHENANDOAH VALLEY

CITY           SKY/WX    TMP DP  RH WIND       PRES   REMARKS
WINCHESTER*    LGT RAIN  52  37  58 W8        29.64R
FRONT ROYAL*   CLOUDY    52  45  76 W6        29.64R
LURAY*         LGT RAIN  54  45  71 W16       29.64S
NEW MARKET*    CLOUDY    52  42  69 W6        29.66R
STAUNTON*      CLOUDY    51  43  74 W6        29.69R
WAYNESBORO*    CLOUDY    49  44  83 W9        29.66S

$$

WVZ021-048>050-054>055-250800-
EASTERN WEST VIRGINIA PANHANDLE

CITY           SKY/WX    TMP DP  RH WIND       PRES   REMARKS
MARTINSBURG    LGT RAIN  51  40  65 W20G26    29.65R
PETERSBURG*    CLOUDY    48  34  57 W13       29.70R

$$

VAZ036>039-050-250800-
CENTRAL FOOTHILLS

CITY           SKY/WX    TMP DP  RH WIND       PRES   REMARKS
CHARLOTTESVILL CLOUDY    57  47  69 SW5       29.62S
CULPEPER*      CLOUDY    57  55  94 CALM      29.62R
ORANGE*        CLOUDY    55  54  94 S3        29.65R
GORDONSVILLE*  PTSUNNY   55  52  90 SW6       29.62R
WARRENTON*     MOCLDY    58  58 100 W3        29.62R

$$

VAZ055>057-250800-
NORTH AND CENTRAL PIEDMONT

CITY           SKY/WX    TMP DP  RH WIND       PRES   REMARKS
FREDERICKSBRG* CLOUDY    59  59 100 SW9       29.62R
STAFFORD*      CLOUDY    60  60 100 SW6       29.66R

$$

NCZ024-NYZ072-PAZ021-071-VAZ022-071-250800-
OTHER REGIONAL OBSERVATIONS

CITY           SKY/WX    TMP DP  RH WIND       PRES   REMARKS
NEW YORK CITY  CLOUDY    56  55  97 SE5       29.54F
PHILADELPHIA   LGT RAIN  65  61  87 SW17      29.56R
PITTSBURGH     CLOUDY    40  35  83 SW13G25   29.65R
ROANOKE        CLOUDY    49  39  68 W9        29.70R
RICHMOND       LGT RAIN  65  61  87 SW14G21   29.65R
RALEIGH        LGT RAIN  62  57  83 W9G21     29.72R

$$

ANZ530>537-250800-
MARINE OBSERVATIONS

STATION/POSITION TIME  TEMP    WIND        PRES
                       AIR SEA DIR/SP/G
                 (UTC) (F)     (DEG/KT/KT) (MB)
THOMAS PT LIGHT  0700   61 42  250/ 17/ 19 1003.1R
BALT KEY BRIDGE  0700   59     250/ 17/ 22 1002.3R
COVE POINT       0700   64     220/ 10/ 13 1002.3R
LEWISETTA        0700   64 44  230/ 15/ 20 1002.3S
SOLOMONS ISLAND  0700      43                N/A
PINEY POINT      0700          240/ 10/ 12   N/A

$$




USA.gov is the U.S. government's official web portal to all federal, state and local government web resources and services.